Showing default

SZ-20 MODULE, 67481

Orbit data source: Space-Track

SZ-20 MODULE, 67481 is a payload satellite owned by ZZHGB (CN) in LEO that was launched on Thu, 24 Apr 2025 UTC launched from the Jiuquan Satellite Launch Center, China (JSC). Payload-class satellites include a variety of spacecraft equipped with specific instruments for various scientific and technological missions. These include communications satellites like Starlink; space stations such as the ISS; scientific satellites like the Hubble; Earth observation satellites from companies like Planet Labs, Umbra, and HawkEye 360; GPS; miniature CubeSats for education and research; and military/defense satellites.

Loading next visibility...
Identifier
67481, 2025-082C
Orbit
LEO
Country
Flag of CNCN / PRC
Related business
Manufacturer
CAST
Mission
Operational Civil Spaceship
Bus & Motor
SHENZHOU OM, Unknown motor
Mass
~1,842 kg wet, ~1,500 kg dry
Launch date (UTC)
2025-04-24 (1 year ago)
Launch vehicle
Unknown
Launch site
Jiuquan Satellite Launch Center, China (JSC)
Object type
Payload
Rocket body
Debris
Shape & HBR
Cyl + 2 Pan, 14.5 m
Radar Cross Section
9.277 m², Large (>1 m²)

Expand to show TLE details & history
Last TLE update: 11 hours ago

TLE from 11 hours ago
0 SZ-20 MODULE
1 67481U 25082C   26171.38859424  .00024390  00000-0  20503-3 0  9994
2 67481  41.4771 296.5780 0011613  11.2699 348.8402 15.69215214293738
Epoch: 2026-06-20T09:19Z
TLE epoch observation values (Epoch: 2026-06-20T09:19:34.542Z)
Latitude
0.00004°
Longitude
-111.91981°
Altitude
353.065 km
Speed
7.704 km/s
True Right ascension
19h 46m 18s
True Declination
0° 00' 00"
Sunlit
Object was in full shadow at epoch
Visualization orbit readout
Latitude
Unknown
Longitude
Unknown
Altitude
Unknown
Speed
Unknown
Apparent Right ascension
Unknown
Apparent Declination
Unknown
Sunlit
N/A
Visualization observer readout
Local Sidereal Time
07:21:31
Azimuth
Unknown
Elevation
Unknown
Doppler factor
Unknown
Orbital elements
Apogee altitude
371.212 km
Perigee altitude
355.554 km
Semi-major axis
6,741.52 km
Eccentricity
0.00116
Inclination
41.4771°
RAAN
296.578°
Arg. of periapsis
11.2699°
True anomaly
348.81441°
Mean anomaly
348.8402°
Eccentric anomaly
348.82731°
Mean motion
3.92109 °/min
Orbital period
91.81 mins
BSTAR
0.00020503
Loading maneuver chart data...
Computing Atmospheric mass density...
Loading historical data...
Loading historical data...
Loading historical data...
Loading historical data...
Loading historical data...
Loading historical data...
Loading historical data...
Other satellites on launch #82 in the year 2025 (2025-04-24 UTC)

Documentation

Showing up to 5 results
|